Location: Bothwell
(42.3833°S, 147.0000°E)
Time: 06:23:45
(UTC+10:00)

BUGSAT 1 - Visible Passes

Search period start: 25 September 2022 00:00
Search period end: 05 October 2022 01:00
Orbit: 554 x 598 km, 98.1° (Epoch: 24 September)

Date Brightness Start Highest point End Pass type
(mag) Time Alt. Az. Time Alt. Az. Time Alt. Az.
25 Sep ? 04:38:19 10° NE 04:41:55 28° ESE 04:45:34 10° S visible
25 Sep ? 19:28:49 10° SSW 19:31:50 19° WSW 19:34:47 10° WNW visible
26 Sep ? 04:41:54 10° NE 04:45:36 30° ESE 04:49:21 10° S visible
26 Sep ? 19:32:39 10° SSW 19:35:30 18° WSW 19:38:17 10° WNW visible
27 Sep ? 04:45:29 10° NE 04:49:17 33° ESE 04:53:07 10° S visible
27 Sep ? 19:36:31 10° SSW 19:39:09 16° WSW 19:41:46 10° WNW visible
28 Sep ? 04:49:05 10° NE 04:52:58 35° ESE 04:56:52 10° S visible
28 Sep ? 19:40:23 10° SSW 19:42:48 15° WSW 19:45:13 10° W visible
29 Sep ? 04:52:41 10° NE 04:56:38 38° ESE 05:00:38 10° S visible
29 Sep ? 19:44:16 10° SSW 19:46:28 14° WSW 19:48:37 10° W visible
30 Sep ? 04:56:19 10° NE 05:00:18 42° ESE 05:04:22 10° S visible
30 Sep ? 19:48:12 10° SW 19:50:06 13° WSW 19:51:59 10° W visible
01 Oct ? 04:59:55 10° NE 05:03:59 46° ESE 05:08:05 10° S visible
01 Oct ? 19:52:12 10° SW 19:53:44 12° WSW 19:55:17 10° W visible
02 Oct ? 06:03:33 10° NNE 06:07:39 50° ESE 06:11:49 10° S visible
02 Oct ? 20:56:18 10° SW 20:57:22 11° WSW 20:58:26 10° WSW visible
03 Oct ? 06:07:11 10° NNE 06:11:19 55° ESE 06:15:31 10° S visible
04 Oct ? 06:10:49 10° NNE 06:14:59 60° ESE 06:19:14 10° S visible
